Location: Newark
(63.1158°N, 8.1461°E)
Time: 23:11:11
(UTC+00:00)

Envisat - Pass Details

Date: 16 December 2019
Orbit: 764 x 766 km, 98.1° (Epoch: 20 January)

Event Time Altitude Azimuth Distance (km) Brightness Sun altitude
Rises 05:51:18 0° 18° (NNE) 3,251 6.3 -17.5°
Reaches altitude 10° 05:53:46 10° 26° (NNE) 2,320 5.6 -17.3°
Maximum altitude 05:58:34 39° 96° (E) 1,136 4.5 -16.8°
Drops below altitude 10° 06:03:20 10° 165° (SSE) 2,304 5.9 -16.2°
Sets 06:05:46 0° 173° (S) 3,226 6.6 -16.0°
